Volver al catálogo

GLOBALSTAR M066

ActivoComunicacionesLEO
NORAD 32265·PAYLOAD·🇺🇸 United States

Lanzado Oct 20, 2007 desde Baikonur Cosmodrome

Loading…

Próximos Pases (próximas 24 horas)

TLE

ActualizadoSource: Space-Track

Época: Sep 14, 2026, 03:08 UTC

1 32265U 07048C   26257.13092222 -.00000129  00000-0 -28841-3 0  9990
2 32265  51.9579 162.5803 0004129 226.7706 280.6827 12.30390570871174

Sigue GLOBALSTAR M066 en tiempo real con AllMySat

Download on the App Store